This is the latest recevied weather packets stored in our database for station/object SM2FXT-13. If no packets are shown the sender has not sent any weather packets the latest 10 day(s).
| Time | Temp. | Humidity | Pressure | Rain* | Wind** | Luminosity | Snow |
|---|---|---|---|---|---|---|---|
| 1778280002 | 8.33° C | 40% | 1025.2 hPa | 0 mm | - | - | - |
| 1778278202 | 8.89° C | 40% | 1025.1 hPa | 0 mm | - | - | - |
| 1778275803 | 8.89° C | 40% | 1024.9 hPa | 0 mm | - | - | - |
| 1778273403 | 9.44° C | 41% | 1024.7 hPa | 0 mm | - | - | - |
| 1778272802 | 9.44° C | 40% | 1024.8 hPa | 0 mm | - | - | - |
| 1778270403 | 10° C | 43% | 1024.3 hPa | 0 mm | - | - | - |
| 1778262602 | 13.33° C | 36% | 1023.3 hPa | 0 mm | - | - | - |
| 1778259603 | 15° C | 32% | 1022.9 hPa | 0 mm | - | - | - |
| 1778259003 | 15° C | 29% | 1023 hPa | 0 mm | - | - | - |
| 1778254203 | 16.67° C | 26% | 1022.9 hPa | 0 mm | - | - | - |
| 1778250603 | 19.44° C | 22% | 1023.2 hPa | 0 mm | - | - | - |
| 1778249403 | 19.44° C | 21% | 1023.3 hPa | 0 mm | - | - | - |
| 1778248203 | 18.33° C | 22% | 1023.3 hPa | 0 mm | - | - | - |
| 1778245803 | 17.22° C | 22% | 1023.5 hPa | 0 mm | - | - | - |
| 1778240403 | 17.78° C | 23% | 1023.8 hPa | 0 mm | - | - | - |
| 1778236203 | 15.56° C | 32% | 1024 hPa | 0 mm | - | - | - |
| 1778235603 | 15.56° C | 32% | 1024 hPa | 0 mm | - | - | - |
| 1778233203 | 15° C | 37% | 1023.9 hPa | 0 mm | - | - | - |
| 1778227203 | 15° C | 39% | 1024 hPa | 0 mm | - | - | - |
| 1778217003 | 11.11° C | 59% | 1022.9 hPa | 0 mm | - | - | - |
| 1778215803 | 11.11° C | 63% | 1022.8 hPa | 0 mm | - | - | - |
| 1778210403 | -0.56° C | 100% | 1022.2 hPa | 0 mm | - | - | - |
| 1778208003 | -2.78° C | 100% | 1021.8 hPa | 0 mm | - | - | - |
| 1778200804 | -2.22° C | 100% | 1020.8 hPa | 0 mm | - | - | - |
| 1778198404 | -2.22° C | 100% | 1020.4 hPa | 0 mm | - | - | - |
* Rain latest hour (hover to see other rain measurements)
** Current wind speed in m/s (hover to see current wind gust speed)